Regional Weather Roundup
Issued by NWS State College, PA

Home | Current Version | Previous Version | Text Only | Print | Product List | Glossary On
Versions: 1 2 3 4 5 6 7 8 9 10 11 12 13 14 15 16 17 18 19 20 21 22 23 24 25 26 27 28 29 30 31 32 33 34 35 36 37 38 39 40 41 42 43 44 45 46 47 48 49 50
000
ASUS41 KCTP 301410
RWRCTP

REGIONAL WEATHER ROUNDUP
NATIONAL WEATHER SERVICE STATE COLLEGE PA
1000 AM EDT MON MAR 30 2015

Note: "fair" indicates few or no clouds below 12,000 feet with no
significant weather and/or obstructions to visibility.

* = STATION THAT DOES NOT REPORT PRECIPITATION /E.G. RAIN...SNOW...ETC/
    THUNDER OR FOG.

PAZ002>004-007>009-013>016-020>023-029>032-301500-
WESTERN PENNSYLVANIA

CITY           SKY/WX    TMP DP  RH WIND       PRES   REMARKS
ERIE           CLOUDY    38  30  73 W16G29    29.85R
MEADVILLE      CLOUDY    38  29  70 W14G23    29.85R
FRANKLIN*      CLOUDY    39  27  60 W13G22    29.87R
NEW CASTLE     CLOUDY    42  32  68 W12G21    29.92R
BEAVER COUNTY  MOSUNNY   43  32  65 W10G18    29.91R
BUTLER*        CLOUDY    41  30  65 NW12G18   29.92R
PITTSBURGH INT MOSUNNY   43  30  60 W16G23    29.92R
PITTSBURGH     CLOUDY    42  25  50 W15G24    29.91R
INDIANA*       CLOUDY    41  34  75 W12       29.91S
LATROBE        PTSUNNY   43  32  65 W12G23    29.93R
WASHINGTON CO* PTSUNNY   45  28  53 W10G21    29.96R
$$

PAZ004>006-010>012-017>019-024>028-033>037-041-042-045-046-049>053-301500-
CENTRAL PENNSYLVANIA

CITY           SKY/WX    TMP DP  RH WIND       PRES   REMARKS
BRADFORD       CLOUDY    35  26  69 W13G23    29.77R
DUBOIS         CLOUDY    39  30  70 W18G28    29.82R
CLEARFIELD     CLOUDY    39  28  64 W10G24    29.83R
JOHNSTOWN      CLOUDY    38  30  73 W18G31    29.83R
ALTOONA        PTSUNNY   43  31  62 W22G33    29.83R
STATE COLLEGE  CLOUDY    41  34  75 W15G22    29.83R
WILLIAMSPORT   CLOUDY    40  32  73 N7        29.81R
SELINSGROVE    CLOUDY    41  28  60 VRB6      29.84S
FT INDIANTOWN  CLOUDY    38  26  61 CALM      29.86F
CAPITAL CITY   LGT RAIN  43  24  47 W7        29.87S
HARRISBURG     PTSUNNY   43  22  43 N3        29.87S
YORK           CLOUDY    44  24  45 SW6       29.87S
$$

PAZ038>040-043-044-047-048-054-055-060>062-067>071-301500-
EASTERN PENNSYLVANIA

CITY           SKY/WX    TMP DP  RH WIND       PRES   REMARKS
SCRANTON       CLOUDY    40  26  57 S10       29.78F
MOUNT POCONO   CLOUDY    32  24  72 W10       29.77F
ALLENTOWN      CLOUDY    39  27  62 S8        29.86F
QUAKERTOWN*    CLOUDY    39  28  65 SW13      29.86F
READING        CLOUDY    42  24  49 SW12      29.86F
LANCASTER      CLOUDY    43  25  49 SW10      29.87S
COATESVILLE    CLOUDY    41  28  60 S7        29.87F
POTTSTOWN      CLOUDY    40  28  62 VRB6      29.88F
BLUE BELL      CLOUDY    41  32  70 SW10      29.88S
DOYLESTOWN     CLOUDY    37  31  78 S6        29.87F
WILLOW GROVE   NOT AVBL
NORTH PHILA    CLOUDY    41  30  65 SW9       29.91S
PHILADELPHIA   CLOUDY    41  33  73 SW15      29.91F
$$


USA.gov is the U.S. government's official web portal to all federal, state and local government web resources and services.